Stations météo

réclame
Mon MeteoGroup
Ciudad Real, Espagne (8348): Température de l'air & dewpoint: 11.07.2018 13:00:00 - 17.07.2018 13:00:00 (CEST)Ciudad Real, Espagne (8348): Vitesse du vent: 11.07.2018 13:00:00 - 17.07.2018 13:00:00 (CEST)Ciudad Real, Espagne (8348): Direction du vent: 11.07.2018 13:00:00 - 17.07.2018 13:00:00 (CEST)Ciudad Real, Espagne (8348): reduced air pressure: 11.07.2018 13:00:00 - 17.07.2018 13:00:00 (CEST)Ciudad Real, Espagne (8348): visibility: 11.07.2018 13:00:00 - 17.07.2018 13:00:00 (CEST)Ciudad Real, Espagne (8348): Quantités de précipitations: 11.07.2018 13:00:00 - 17.07.2018 13:00:00 (CEST)
Date & Time tt [°C] td [°C] ff [km/h] ff [knt] dd ppp [hPa] vv [km] rr [mm]
17.07.2018 13:00:00 32,3 7,2 8 4 ESE 1013,2 20 0,0
17.07.2018 12:00:00 30,3 8,7 9 5 SSE 1014,1 20 0,0
17.07.2018 11:00:00 27,4 8,8 8 4 ENE 1015,0 20 -
17.07.2018 10:00:00 23,9 9,5 11 6 ENE 1016,0 20 0,0
17.07.2018 09:00:00 20,7 8,7 9 5 E 1016,9 20 0,0
17.07.2018 08:00:00 18,0 7,4 5 3 E 1017,7 20 -
17.07.2018 07:00:00 17,2 6,4 4 2 NE 1017,9 20 0,0
17.07.2018 06:00:00 18,2 6,4 4 2 NNE 1017,5 20 0,0
17.07.2018 05:00:00 18,9 7,0 2 1 E 1017,3 20 -
17.07.2018 04:00:00 19,6 7,7 4 2 N 1017,1 20 0,0
17.07.2018 03:00:00 20,5 8,5 0 0 N 1017,1 20 0,0
17.07.2018 02:00:00 21,6 8,1 0 0 N 1017,3 20 -
17.07.2018 01:00:00 23,3 7,8 2 1 N 1017,0 20 0,0
17.07.2018 00:00:00 25,1 7,2 8 4 WNW 1016,5 20 0,0
16.07.2018 23:00:00 26,4 6,4 5 3 WNW 1015,9 20 -
16.07.2018 22:00:00 27,7 6,4 4 2 NW 1015,2 20 0,0
16.07.2018 21:00:00 28,8 6,2 2 1 S 1014,8 20 0,0
16.07.2018 20:00:00 30,6 6,5 4 2 SW 1014,3 20 -
16.07.2018 19:00:00 31,3 6,4 4 2 W 1014,0 20 0,0
16.07.2018 18:00:00 31,1 6,2 5 3 W 1014,4 20 0,0
16.07.2018 17:00:00 30,6 5,1 9 5 NNW 1015,1 20 -
16.07.2018 16:00:00 29,9 5,9 9 5 NW 1015,5 20 0,0
16.07.2018 15:00:00 29,2 7,1 8 4 N 1016,2 20 0,0
16.07.2018 14:00:00 28,0 8,8 11 6 WNW 1017,0 20 -
16.07.2018 13:00:00 26,7 9,1 8 4 NW 1017,5 20 0,0
16.07.2018 12:00:00 25,1 10,9 8 4 W 1018,0 20 0,0
16.07.2018 11:00:00 22,7 12,0 11 6 W 1018,5 20 -
16.07.2018 10:00:00 21,1 12,8 8 4 W 1019,1 20 0,0
16.07.2018 09:00:00 18,8 12,5 9 5 WNW 1019,5 20 0,0
16.07.2018 08:00:00 17,1 11,8 9 5 WSW 1019,6 20 -
16.07.2018 07:00:00 17,0 10,8 8 4 WSW 1019,3 20 0,0
16.07.2018 06:00:00 17,6 10,5 9 5 WSW 1018,7 20 0,0
16.07.2018 05:00:00 17,9 10,3 11 6 WSW 1018,8 20 -
16.07.2018 04:00:00 18,8 10,1 9 5 WSW 1018,6 20 0,0
16.07.2018 03:00:00 19,2 9,4 9 5 WSW 1018,5 20 0,0
16.07.2018 02:00:00 20,1 8,4 8 4 WNW 1018,4 20 -
16.07.2018 01:00:00 20,9 7,1 8 4 W 1018,0 20 0,0
16.07.2018 00:00:00 21,8 7,2 5 3 W 1017,4 20 0,0
15.07.2018 23:00:00 23,0 7,9 11 6 WNW 1016,7 20 -
15.07.2018 22:00:00 24,2 9,0 13 7 WNW 1015,4 20 0,0
15.07.2018 21:00:00 26,0 8,9 13 7 WNW 1014,2 20 0,0
15.07.2018 20:00:00 27,8 8,6 15 8 WNW 1013,3 20 -
15.07.2018 19:00:00 28,9 8,0 13 7 W 1013,2 20 0,0
15.07.2018 18:00:00 29,6 6,9 11 6 W 1013,3 20 0,0
15.07.2018 17:00:00 30,0 6,6 13 7 W 1013,4 20 -
15.07.2018 16:00:00 30,3 4,1 15 8 WSW 1013,7 20 0,0
15.07.2018 15:00:00 29,3 5,4 15 8 WSW 1014,2 20 0,0
15.07.2018 14:00:00 28,5 8,2 9 5 SW 1014,9 20 -
15.07.2018 13:00:00 27,3 9,2 11 6 WNW 1015,7 20 0,0
15.07.2018 12:00:00 25,5 8,9 9 5 W 1016,6 20 0,0
15.07.2018 11:00:00 23,4 9,4 8 4 SW 1017,4 20 -
15.07.2018 10:00:00 20,8 10,0 9 5 W 1018,3 20 0,0
15.07.2018 09:00:00 19,6 8,9 8 4 W 1018,6 20 0,0
15.07.2018 08:00:00 17,8 6,0 9 5 WSW 1018,7 20 -
15.07.2018 07:00:00 17,9 5,5 5 3 WSW 1018,2 20 0,0
15.07.2018 06:00:00 18,8 5,9 8 4 W 1017,8 20 0,0
15.07.2018 05:00:00 20,2 6,5 8 4 WSW 1017,4 - -
15.07.2018 04:00:00 21,6 7,0 9 5 WSW 1017,0 20 0,0
15.07.2018 03:00:00 22,7 7,3 8 4 SW 1016,8 20 0,0
15.07.2018 02:00:00 23,5 7,1 5 3 SW 1017,2 20 -
15.07.2018 01:00:00 24,7 6,4 8 4 WNW 1016,9 20 0,0
15.07.2018 00:00:00 25,4 6,1 9 5 WNW 1016,5 20 0,0
14.07.2018 23:00:00 26,5 4,9 5 3 WNW 1015,6 20 -
14.07.2018 22:00:00 28,2 4,5 9 5 WSW 1014,3 20 0,0
14.07.2018 21:00:00 29,9 4,5 13 7 WSW 1013,3 20 0,0
14.07.2018 20:00:00 31,8 2,0 13 7 SW 1012,8 20 -
14.07.2018 19:00:00 33,1 -0,1 13 7 WSW 1012,6 20 0,0
14.07.2018 18:00:00 33,2 2,1 16 9 WSW 1013,0 20 0,0
14.07.2018 17:00:00 33,5 3,3 13 7 SW 1013,3 20 -
14.07.2018 16:00:00 33,0 4,7 13 7 WSW 1013,8 20 0,0
14.07.2018 15:00:00 32,6 6,0 11 6 WSW 1014,1 20 0,0
14.07.2018 14:00:00 31,8 5,3 11 6 SW 1014,9 20 -
14.07.2018 13:00:00 30,6 7,1 11 6 SSW 1015,3 20 0,0
14.07.2018 12:00:00 29,3 7,2 11 6 S 1015,7 19 0,0
14.07.2018 11:00:00 27,2 10,0 5 3 W 1016,3 20 -
14.07.2018 10:00:00 24,7 10,6 4 2 SW 1017,0 20 0,0
14.07.2018 09:00:00 22,2 9,0 5 3 WNW 1017,3 20 0,0
14.07.2018 08:00:00 19,0 7,1 4 2 WSW 1017,8 20 -
14.07.2018 07:00:00 18,6 6,7 2 1 SE 1017,6 20 0,0
14.07.2018 06:00:00 20,2 6,2 5 3 W 1016,9 20 0,0
14.07.2018 05:00:00 21,2 5,9 9 5 WSW 1016,5 20 -
14.07.2018 04:00:00 21,6 4,2 8 4 SW 1016,9 20 0,0
14.07.2018 03:00:00 22,2 3,3 5 3 SSW 1016,7 20 0,0
14.07.2018 02:00:00 22,5 2,6 5 3 SW 1016,6 20 -
14.07.2018 01:00:00 23,8 2,0 5 3 WNW 1016,1 20 0,0
14.07.2018 00:00:00 25,1 1,9 11 6 WSW 1015,2 20 0,0
13.07.2018 23:00:00 26,6 0,3 9 5 WSW 1014,1 20 -
13.07.2018 22:00:00 28,4 -1,7 9 5 SW 1013,0 20 0,0
13.07.2018 21:00:00 30,5 0,9 13 7 SW 1011,8 20 0,0
13.07.2018 20:00:00 32,7 2,7 15 8 WSW 1010,9 20 -
13.07.2018 19:00:00 34,0 5,5 9 5 SSW 1010,3 20 0,0
13.07.2018 18:00:00 34,2 7,3 8 4 S 1010,5 20 0,0
13.07.2018 17:00:00 34,7 8,4 13 7 SSE 1010,5 20 -
13.07.2018 16:00:00 33,9 11,1 11 6 E 1010,7 20 0,0
13.07.2018 15:00:00 32,2 13,4 5 3 ESE 1011,5 20 0,0
13.07.2018 14:00:00 31,3 12,1 5 3 SE 1012,5 25 -
13.07.2018 13:00:00 30,9 11,8 9 5 E 1013,0 20 0,0
13.07.2018 12:00:00 28,9 11,9 5 3 S 1013,5 20 0,0
13.07.2018 11:00:00 26,5 12,2 5 3 NNW 1013,9 25 -
13.07.2018 10:00:00 24,5 12,4 5 3 W 1014,4 20 0,0
13.07.2018 09:00:00 22,6 13,6 8 4 W 1014,5 20 0,0
13.07.2018 08:00:00 21,1 13,3 - - - - 25 -
13.07.2018 07:00:00 20,9 12,8 8 4 S 1014,5 19 0,0
13.07.2018 06:00:00 21,5 12,9 5 3 SW 1014,0 20 0,0
13.07.2018 05:00:00 22,4 11,8 5 3 WSW 1013,9 20 -
13.07.2018 04:00:00 23,1 11,2 9 5 WSW 1013,5 20 0,0
13.07.2018 03:00:00 24,1 12,1 5 3 W 1013,1 20 0,0
13.07.2018 02:00:00 25,3 12,2 8 4 W 1012,8 20 -
13.07.2018 01:00:00 26,5 11,8 11 6 WSW 1012,5 20 0,0
13.07.2018 00:00:00 27,7 9,0 11 6 SW 1011,8 20 0,0
12.07.2018 23:00:00 29,0 9,2 11 6 WSW 1010,8 20 -
12.07.2018 22:00:00 30,0 6,6 4 2 NW 1009,8 19 0,0
12.07.2018 21:00:00 31,6 5,2 8 4 NNW 1009,3 20 0,0
12.07.2018 20:00:00 33,4 5,8 5 3 NW 1008,7 25 -
12.07.2018 19:00:00 33,8 6,2 9 5 W 1008,8 20 0,0
12.07.2018 18:00:00 34,0 7,9 5 3 WNW 1009,1 20 0,0
12.07.2018 17:00:00 33,8 8,4 8 4 NNW 1009,5 20 -
12.07.2018 16:00:00 33,2 7,9 9 5 W 1010,2 20 0,0
12.07.2018 15:00:00 32,7 8,9 5 3 NW 1010,8 20 0,0
12.07.2018 14:00:00 32,5 9,9 5 3 SW 1011,4 25 -
12.07.2018 13:00:00 30,4 10,9 8 4 WSW 1012,2 20 0,0
12.07.2018 12:00:00 29,1 12,1 11 6 WNW 1012,8 20 0,0
12.07.2018 11:00:00 27,2 14,6 5 3 WNW 1012,7 20 -
12.07.2018 10:00:00 - - - - - - - -
12.07.2018 09:00:00 - - - - - - - -
12.07.2018 08:00:00 21,1 14,3 4 2 WSW 1013,8 25 -
12.07.2018 07:00:00 20,5 14,6 5 3 SW 1013,6 14 0,0
12.07.2018 06:00:00 21,3 14,9 4 2 W 1013,2 19 0,0
12.07.2018 05:00:00 21,8 14,9 4 2 SW 1012,9 20 -
12.07.2018 04:00:00 22,1 14,7 5 3 WSW 1012,8 20 0,0
12.07.2018 03:00:00 22,7 14,0 4 2 SSW 1013,0 20 0,0
12.07.2018 02:00:00 23,3 13,5 5 3 WSW 1013,1 20 -
12.07.2018 01:00:00 24,1 12,4 8 4 W 1013,0 20 0,0
12.07.2018 00:00:00 25,1 9,4 5 3 SW 1012,6 20 0,0
11.07.2018 23:00:00 26,3 7,3 8 4 W 1011,7 20 -
11.07.2018 22:00:00 27,7 5,9 13 7 WNW 1010,6 20 0,0
11.07.2018 21:00:00 29,4 10,5 15 8 WNW 1009,9 20 0,0
11.07.2018 20:00:00 31,4 10,1 18 10 WNW 1008,9 20 -
11.07.2018 19:00:00 32,8 9,6 15 8 W 1008,3 20 0,0
11.07.2018 18:00:00 33,4 11,9 15 8 W 1008,2 20 0,0
11.07.2018 17:00:00 33,9 10,5 13 7 W 1008,4 20 -
11.07.2018 16:00:00 34,2 10,1 11 6 W 1008,8 20 0,0
11.07.2018 15:00:00 33,6 9,6 11 6 WSW 1009,6 20 0,0
11.07.2018 14:00:00 33,0 9,7 11 6 WSW 1010,2 25 -
11.07.2018 13:00:00 31,5 11,8 9 5 W 1011,2 20 0,0

tt = Température de l'air
td = dewpoint
ff = Vitesse du vent
dd = Direction du vent
ppp = reduced air pressure
vv = visibility
rr = Quantités de précipitations

stations d'obs. à proximité